Regional Weather Roundup
Issued by NWS

Home | Current Version | Previous Version | Graphics & Text | Print | Product List | Glossary On
Versions: 1 2 3 4 5 6 7 8 9 10 11 12 13 14 15 16 17 18 19 20 21 22 23 24 25 26 27
000
ASUS45 KBOU 232006
RWRCO

WEATHER ROUNDUP FOR COLORADO
NATIONAL WEATHER SERVICE DENVER/BOULDER CO
200 PM MDT WED APR 23 2014

NOTE: "FAIR" INDICATES FEW OR NO CLOUDS BELOW 12000 FEET WITH NO
SIGNIFICANT WEATHER AND/OR OBSTRUCTIONS TO VISIBILITY.

COZ001>005-013-030-031-232100-
...NORTHWEST COLORADO...

CITY           SKY/WX    TMP DP  RH WIND       PRES   REMARKS
CRAIG          CLOUDY    45  28  51 W12       29.90F
HAYDEN         CLOUDY    43  27  52 W12       29.92S
MEEKER         CLOUDY    49  16  26 W15G21    29.90R
MOUNT WERNER   CLOUDY   N/A N/A N/A W17G24    29.93S VSB<1/4
STEAMBOAT SPGS CLOUDY    43  25  49 SW13G18   29.88S
WALDEN         PTSUNNY   45  21  39 SW20G28   29.86S
$$

COZ006>008-011-232100-
...WEST CENTRAL VALLEYS...

CITY           SKY/WX    TMP DP  RH WIND       PRES   REMARKS
GRAND JUNCTION CLOUDY    57  17  21 W17G26    29.86R
MONTROSE       PTSUNNY   57  17  21 NW18      29.84S
EAGLE          PTSUNNY   54  21  28 SW18G28   29.83S
RIFLE          PTSUNNY   58  17  20 W22G33    29.81F
DELTA          NOT AVBL
NUCLA          NOT AVBL
$$

COZ017>023-064>068-232100-
...SOUTHWEST COLORADO...

CITY           SKY/WX    TMP DP  RH WIND       PRES   REMARKS
DURANGO        CLOUDY    60  10  14 W20G26    29.86S
CORTEZ         SUNNY     59  10  14 W17G29    29.87R
PAGOSA SPRINGS CLOUDY    56  11  16 SW16G24   29.88S
TELLURIDE      CLOUDY    46  16  29 W15G21    29.91R
WOLF CREEK PAS PTSUNNY   32  10  40 SW28G53   29.98F WCI  18
$$

COZ009-010-012-014-032>034-037-058>063-232100-
...CENTRAL COLORADO...

CITY           SKY/WX    TMP DP  RH WIND       PRES   REMARKS
ASPEN          PTSUNNY   53   7  15 MISG      29.82F
BUENA VISTA    PTSUNNY   57  11  15 SW10      29.78F
COPPER MTN     PTSUNNY   37  18  44 SW16G23   29.94S
BERTHOUD PASS  FAIR      30  19  64 NW13G31   29.95F WCI  20
COTTONWOOD PAS PTSUNNY   52   9  17 W13G20    29.87S
GUNNISON       PTSUNNY   54  16  22 W22G29    29.85S
KREMMLING      CLOUDY    50  25  37 N16G23    29.83S
LEADVILLE      PTSUNNY   42   8  24 SW10G21   29.87R
MONARCH PASS   CLOUDY    34  16  47 W29G35    30.04F WCI  20
SALIDA         PTSUNNY   63  13  14 W20G25    29.84F
SUNLIGHT       PTSUNNY   36  23  60 SW3       29.95R
WILKERSON PASS MOSUNNY   45  14  29 SW13G22   29.91F
$$

COZ069>075-232100-
...SAN LUIS VALLEY/SANGRE DE CRISTO MOUNTAINS...

CITY           SKY/WX    TMP DP  RH WIND       PRES   REMARKS
ALAMOSA        PTSUNNY   62  13  14 W18G26    29.79F
LA VETA PASS   PTSUNNY   50  19  29 SW21G33   29.88S
SAGUACHE       CLOUDY    57  18  21 N9        29.79S
$$

COZ035-036-038>040-232100-
...NORTHERN COLORADO FRONT RANGE...

CITY           SKY/WX    TMP DP  RH WIND       PRES   REMARKS
DENVER INTL AP PTSUNNY   70  32  24 E15       29.60S
DMNS CITY PARK   N/A     71  19  13 SW9G17    29.58S
AURORA         PTSUNNY   72  16  12 W10       29.61F
FRONT RANGE AP NOT AVBL
ERIE MUNI ARPT PTSUNNY   69  26  19 W23G32    29.60S
BOULDER MUN AP PTSUNNY   64  28  25 W23G35    29.60S
CENTENNIAL     PTSUNNY   69  16  13 SW10      29.62F
BROOMFIELD     PTSUNNY   68  30  24 W14       29.61S
FORT COLLINS   PTSUNNY   66  27  22 W10       29.63R
LONGMONT       NOT AVBL
$$

COZ041-046-047-076>085-087-088-232100-
...PIKES PEAK/PALMER DIVIDE AND SOUTHERN FOOTHILLS...

CITY           SKY/WX    TMP DP  RH WIND       PRES   REMARKS
COLO. SPRINGS  PTSUNNY   73  20  13 SW25G31   29.63F
A. F. ACADEMY  MOSUNNY   67  18  15 S7        29.65S
ELLICOTT       NOT AVBL
FALCON         PTSUNNY   69  20  15 SW23G30   29.68F
FORT CARSON    PTSUNNY   70  24  17 S23       29.63R
LIMON          PTSUNNY   74  20  13 VRB6      29.60F
MONUMENT HILL  PTSUNNY   64  19  17 NW10      29.68F
TRINIDAD       SUNNY     77  14   9 W30G36    29.67S
$$

COZ042>045-048>051-090-091-232100-
...NORTHEAST COLORADO...

CITY           SKY/WX    TMP DP  RH WIND       PRES   REMARKS
GREELEY ARPT   MOSUNNY   72  21  15 N5        29.60S
AKRON          SUNNY     71  35  26 N18       29.62F
BURLINGTON     MOSUNNY   81  22  11 W13G18    29.58S
WRAY           MOSUNNY   77  33  20 N18       29.59S
STERLING       NOT AVBL
HOLYOKE        NOT AVBL
FORT MORGAN    NOT AVBL
$$

COZ086-089-092>099-232100-
...SOUTHEAST COLORADO...

CITY           SKY/WX    TMP DP  RH WIND       PRES   REMARKS
PUEBLO         MOSUNNY   79  19  10 VRB7      29.55F
LA JUNTA       SUNNY     83  16   8 SW13G26   29.55F
LAMAR          MOSUNNY   87  20   8 SW22G39   29.52F
SPRINGFIELD      N/A     83  24  11 S26G38    29.59F
$$



USA.gov is the U.S. government's official web portal to all federal, state and local government web resources and services.